Temp
6 6 6 6 6 6 6 6 6 6 6 6 6 6 5 5 5 5 5 5 5 5 5 5 5 5 5 5 5 5 5 5 5 5 5 5 5 5 5 5 5 5
6 6 6 6 6 6 6 6 6 6 6 6 6 5 5 5 5 5 5 5 5 5 5 5 5 5 5 5 5 5 5 5 5 5 5 5 5 5 5 5 5 5
6 6 6 6 6 6 6 6 6 6 6 6 6 5 5 5 5 5 5 5 5 5 5 5 5 5 5 5 5 5 5 5 5 5 5 5 5 5 5 5 5 5
6 6 6 6 6 6 6 6 6 6 6 6 5 5 5 5 5 5 5 5 5 5 5 5 5 5 5 5 5 5 5 5 5 5 5 5 5 5 5 5 5 5
6 6 6 6 6 6 6 6 6 6 6 6 5 5 5 5 5 5 5 5 5 5 5 5 5 5 5 5 5 5 5 5 5 5 5 5 5 5 5 5 5 5
6 6 6 6 6 6 6 6 6 6 6 6 6 6 5 5 5 5 5 5 5 5 5 5 5 5 5 5 5 5 5 5 5 5 5 5 5 5 4 5 5 4
6 6 6 6 6 6 6 6 6 6 6 6 6 6 6 5 5 5 5 5 5 5 5 5 5 5 5 5 5 5 5 5 5 5 5 5 5 5 4 4 5 4
6 6 6 6 6 6 6 6 6 6 6 6 6 6 5 5 5 5 5 5 5 5 5 5 5 5 5 5 5 5 5 5 5 5 5 5 5 4 4 4 4 4
5 6 6 6 6 6 6 6 6 6 6 6 6 6 5 5 5 5 5 5 5 5 5 5 5 5 5 5 5 5 5 5 5 5 5 4 4 4 4 4 4 4
5 5 6 6 6 6 6 6 6 6 6 6 6 5 5 5 5 5 5 5 5 5 5 5 5 5 5 5 5 5 5 5 5 4 4 4 4 4 4 4 4 4
5 5 5 6 6 6 6 6 6 6 6 6 5 5 5 5 5 5 5 5 5 5 5 5 5 5 5 5 5 5 5 5 4 4 4 4 4 4 4 4 4 4
5 5 5 5 5 6 6 6 6 6 5 5 5 5 5 5 5 5 5 5 5 5 5 5 5 5 5 5 5 5 4 4 4 4 4 4 4 4 4 4 4 4
5 5 5 5 5 5 5 6 5 5 5 5 5 5 5 5 5 5 5 5 5 5 5 5 5 5 4 4 4 4 4 4 4 4 4 3 3 3 3 3 3 3
4 4 4 5 5 5 5 5 5 5 5 5 5 5 5 5 5 5 5 5 5 5 5 4 4 4 4 4 4 4 3 3 3 3 3 3 3 3 3 3 2 2
4 4 4 4 5 5 5 5 5 5 5 5 5 5 5 5 5 5 5 5 5 4 4 4 4 4 4 3 3 3 3 3 3 2 2 2 2 2 2 2 2 2
3 3 4 4 4 5 5 5 5 5 5 5 5 5 5 5 4 4 4 4 4 4 4 4 3 3 3 3 3 2 2 2 2 2 1 1 1 1 1 1 1 1
3 3 4 4 4 4 5 5 5 5 5 5 5 5 5 4 4 4 4 4 4 4 4 3 3 3 2 2 1 1 1 1 1 1 1 0 0 0 0 0 -0 -0
3 3 3 4 4 4 4 4 5 4 4 4 4 4 4 4 4 4 4 4 4 3 3 3 2 2 1 1 1 0 -0 -0 -0 -0 -1 -1 -1 -1 -1 -1 -1 -1
3 3 3 4 4 4 4 4 4 4 4 4 4 4 4 4 4 3 3 3 3 3 2 2 1 1 0 0 -0 -0 -1 -1 -1 -1 -1 -1 -1 -1 -2 -2 -2 -2
3 3 3 3 4 4 4 4 4 4 4 4 4 4 3 3 3 3 3 3 2 2 1 1 0 -0 -0 -1 -1 -1 -1 -2 -2 -2 -2 -2 -2 -2 -2 -3 -3 -3
3 3 3 3 3 3 4 3 3 3 3 3 3 3 3 3 3 2 2 1 1 1 0 -0 -1 -1 -1 -1 -2 -2 -2 -2 -2 -2 -2 -2 -2 -3 -3 -3 -3 -3
2 3 3 3 3 3 3 3 3 3 3 3 3 2 2 2 2 1 1 0 0 -0 -1 -1 -1 -1 -1 -2 -2 -2 -2 -2 -2 -2 -2 -2 -2 -3 -3 -3 -3 -3
2 2 3 3 3 3 3 3 3 3 3 2 2 2 1 1 1 0 -0 -1 -1 -1 -1 -1 -1 -1 -1 -2 -2 -2 -2 -2 -2 -2 -2 -2 -3 -3 -3 -3 -3 -3
2 2 2 2 2 3 3 2 2 2 2 2 1 1 1 0 -0 -1 -1 -1 -1 -1 -1 -2 -2 -2 -2 -2 -2 -2 -2 -2 -2 -2 -3 -3 -3 -3 -4 -3 -3 -3
2 2 2 2 2 2 2 2 1 1 1 1 0 0 -0 -0 -1 -1 -1 -1 -1 -1 -2 -2 -2 -2 -2 -2 -2 -2 -2 -2 -2 -3 -3 -3 -3 -3 -4 -4 -4 -4
2 2 2 2 2 2 1 1 1 0 -0 -0 -0 -1 -1 -1 -1 -1 -1 -1 -1 -1 -2 -1 -1 -1 -1 -2 -2 -2 -2 -2 -2 -2 -3 -3 -3 -4 -4 -4 -4 -4
Height
3158 3159 3159 3159 3159 3159 3159 3159 3159 3159 3159 3159 3158 3158 3157 3157 3156 3155 3155 3154 3153 3153 3152 3152 3151 3150 3149 3148 3147 3146 3145 3144 3143 3141 3140 3138 3136 3135 3133 3132 3130 3129
3157 3157 3157 3157 3158 3158 3158 3158 3158 3158 3157 3157 3156 3156 3155 3155 3154 3154 3153 3153 3152 3151 3150 3150 3149 3148 3147 3146 3145 3144 3143 3142 3140 3139 3137 3136 3134 3132 3131 3129 3128 3126
3155 3155 3156 3156 3156 3156 3156 3156 3156 3156 3156 3155 3155 3154 3154 3153 3153 3152 3152 3151 3150 3149 3149 3148 3147 3146 3145 3144 3143 3142 3141 3139 3138 3136 3134 3133 3131 3129 3128 3126 3125 3123
3154 3154 3154 3154 3154 3154 3155 3154 3154 3154 3154 3153 3153 3152 3152 3151 3151 3150 3150 3149 3148 3147 3147 3146 3145 3144 3143 3142 3140 3139 3138 3136 3134 3133 3131 3129 3127 3126 3124 3123 3121 3120
3152 3152 3152 3152 3153 3153 3153 3153 3153 3152 3152 3151 3151 3151 3150 3150 3149 3148 3148 3147 3146 3145 3145 3143 3142 3141 3140 3139 3138 3136 3135 3133 3131 3129 3128 3126 3124 3122 3120 3119 3118 3116
3150 3150 3151 3151 3151 3151 3151 3151 3151 3151 3150 3150 3150 3149 3148 3148 3147 3146 3146 3145 3144 3143 3142 3141 3140 3139 3137 3136 3134 3133 3131 3129 3128 3126 3124 3122 3121 3119 3117 3115 3114 3113
3148 3149 3149 3149 3149 3149 3149 3149 3149 3149 3149 3148 3148 3147 3146 3146 3145 3144 3144 3143 3142 3141 3140 3139 3137 3136 3134 3133 3131 3129 3128 3126 3124 3122 3120 3119 3117 3115 3113 3112 3111 3110
3146 3146 3146 3147 3147 3147 3147 3147 3147 3147 3147 3146 3146 3145 3144 3144 3143 3142 3142 3141 3140 3138 3137 3136 3134 3133 3132 3130 3128 3126 3124 3122 3120 3118 3117 3115 3113 3112 3110 3108 3107 3106
3144 3144 3144 3144 3144 3145 3145 3145 3145 3145 3144 3144 3144 3143 3142 3142 3141 3140 3139 3138 3137 3136 3135 3133 3132 3130 3128 3127 3125 3123 3121 3119 3117 3115 3113 3111 3110 3108 3106 3105 3103 3102
3141 3141 3142 3142 3142 3142 3142 3143 3143 3142 3142 3142 3141 3141 3140 3139 3139 3138 3137 3136 3135 3133 3132 3130 3129 3127 3125 3123 3121 3119 3118 3115 3113 3111 3109 3108 3106 3104 3103 3101 3099 3098
3139 3139 3139 3139 3140 3140 3140 3140 3140 3140 3140 3139 3139 3139 3138 3137 3136 3136 3134 3133 3132 3130 3129 3127 3125 3124 3122 3120 3118 3116 3114 3112 3110 3108 3106 3104 3102 3100 3099 3097 3095 3094
3136 3136 3137 3137 3137 3138 3138 3138 3138 3138 3137 3137 3137 3136 3135 3135 3134 3133 3132 3130 3129 3127 3126 3124 3122 3120 3118 3116 3114 3112 3110 3108 3106 3104 3102 3100 3098 3096 3094 3093 3091 3090
3133 3133 3134 3135 3135 3135 3135 3135 3136 3135 3135 3135 3134 3134 3133 3132 3131 3130 3129 3128 3126 3124 3123 3121 3119 3117 3115 3113 3110 3108 3106 3104 3102 3100 3098 3096 3094 3092 3091 3089 3087 3086
3130 3131 3132 3132 3133 3133 3133 3133 3133 3133 3133 3132 3132 3131 3130 3129 3128 3127 3126 3124 3123 3121 3119 3117 3115 3113 3111 3109 3106 3104 3102 3100 3098 3096 3094 3092 3090 3088 3087 3085 3084 3082
3128 3129 3130 3130 3130 3130 3131 3131 3131 3130 3130 3130 3129 3128 3128 3127 3126 3124 3123 3121 3119 3117 3115 3113 3111 3109 3107 3105 3103 3100 3098 3096 3094 3092 3091 3089 3087 3085 3083 3082 3080 3079
3126 3127 3127 3128 3128 3128 3128 3128 3128 3128 3128 3127 3126 3126 3125 3124 3123 3121 3119 3118 3116 3114 3112 3109 3107 3105 3103 3100 3098 3096 3094 3092 3090 3089 3087 3085 3083 3082 3080 3078 3077 3075
3125 3125 3125 3125 3125 3125 3126 3126 3126 3125 3125 3125 3124 3123 3122 3121 3119 3118 3116 3114 3112 3110 3108 3105 3103 3101 3099 3097 3094 3092 3091 3089 3087 3085 3083 3081 3080 3078 3077 3075 3073 3072
3123 3123 3123 3123 3123 3123 3123 3123 3123 3123 3123 3122 3121 3120 3119 3117 3116 3114 3113 3111 3109 3107 3104 3102 3100 3098 3095 3093 3091 3089 3087 3085 3083 3081 3080 3078 3076 3075 3073 3072 3070 3068
3121 3121 3121 3121 3121 3121 3121 3121 3121 3120 3120 3119 3118 3117 3116 3114 3113 3111 3110 3108 3106 3104 3101 3099 3097 3095 3093 3090 3088 3086 3084 3082 3080 3079 3077 3075 3073 3071 3070 3068 3067 3065
3119 3119 3119 3119 3119 3119 3119 3119 3118 3118 3117 3117 3115 3114 3113 3111 3110 3108 3107 3105 3103 3101 3099 3097 3095 3093 3091 3088 3086 3084 3082 3080 3078 3076 3074 3073 3071 3069 3067 3065 3064 3062
3117 3117 3117 3117 3117 3117 3117 3116 3116 3115 3115 3114 3112 3111 3110 3109 3107 3106 3104 3103 3101 3099 3097 3095 3093 3091 3089 3087 3085 3083 3081 3079 3077 3074 3072 3070 3068 3066 3065 3063 3061 3059
3115 3115 3115 3115 3115 3115 3114 3114 3114 3113 3112 3111 3110 3109 3108 3106 3105 3104 3102 3101 3100 3098 3096 3094 3093 3091 3089 3087 3084 3082 3080 3077 3075 3073 3071 3069 3067 3065 3063 3061 3059 3057
3113 3113 3113 3113 3113 3112 3112 3112 3111 3110 3110 3109 3108 3107 3106 3105 3104 3103 3101 3100 3099 3097 3096 3094 3092 3090 3088 3086 3084 3081 3079 3077 3074 3072 3070 3068 3065 3063 3061 3059 3057 3055
3111 3111 3111 3111 3110 3110 3110 3110 3109 3108 3108 3107 3106 3105 3105 3104 3103 3102 3101 3100 3099 3097 3096 3094 3092 3090 3088 3085 3083 3081 3078 3076 3073 3071 3069 3066 3064 3062 3060 3058 3055 3053
3109 3109 3109 3109 3109 3108 3108 3108 3107 3107 3106 3106 3105 3104 3104 3103 3103 3102 3101 3100 3099 3097 3095 3093 3091 3089 3087 3085 3083 3080 3078 3075 3073 3070 3068 3065 3063 3061 3058 3056 3054 3052
3107 3108 3107 3107 3107 3107 3107 3106 3106 3106 3105 3105 3105 3104 3104 3103 3103 3102 3101 3100 3098 3097 3095 3093 3091 3089 3087 3085 3082 3080 3077 3075 3072 3070 3067 3065 3062 3060 3058 3056 3053 3051
Wind_Speed
14 13 13 13 14 14 14 13 13 13 13 14 15 15 15 15 15 15 15 15 16 16 17 18 18 18 18 19 19 20 21 21 22 22 22 22 22 22 22 23 23 24
15 14 14 14 14 14 13 13 13 13 13 14 15 15 15 15 15 15 15 16 16 17 18 18 19 19 20 20 21 22 23 23 23 23 23 24 24 24 24 24 24 24
16 15 15 15 14 14 13 13 13 13 14 15 15 14 14 15 15 15 16 16 16 17 18 18 19 20 21 21 22 23 23 24 24 25 25 25 25 25 25 25 25 25
17 16 16 15 15 14 13 13 13 14 15 14 14 14 14 15 15 15 16 16 16 17 18 18 19 20 21 22 22 23 24 25 26 26 26 26 27 27 26 26 26 25
19 17 16 15 15 15 14 14 14 15 14 14 14 14 14 15 15 15 15 16 16 17 18 19 20 20 21 22 23 25 25 26 27 28 28 27 27 28 27 27 26 26
20 19 18 17 16 15 15 15 15 15 14 14 14 14 14 14 15 15 16 16 17 18 18 19 20 21 23 24 25 26 27 28 28 28 29 28 28 27 27 27 26 25
21 20 19 18 17 17 16 16 16 15 15 14 14 15 15 15 15 15 16 17 17 18 19 20 21 23 24 25 26 27 28 29 29 29 29 28 28 27 27 27 26 25
22 22 20 19 19 18 17 17 17 16 15 15 15 15 15 15 15 15 16 17 18 19 20 21 23 24 26 27 28 29 30 30 30 30 29 29 29 28 28 28 27 26
23 22 21 20 20 19 18 17 17 16 15 15 15 15 15 15 15 16 16 17 19 20 21 23 24 26 28 29 30 31 32 32 32 31 31 30 29 29 29 29 28 28
23 22 21 21 20 19 18 18 18 17 16 16 16 15 15 15 16 17 18 19 20 21 23 25 26 28 30 31 33 33 34 34 33 32 32 31 31 30 30 30 30 29
23 22 22 21 20 19 18 18 18 18 17 17 16 16 16 17 18 19 20 21 22 24 25 27 29 31 33 34 35 35 35 35 34 33 33 32 32 31 31 30 30 29
23 23 22 21 20 19 18 19 19 18 17 17 17 17 18 19 20 21 22 24 25 27 29 30 32 34 35 36 36 36 36 35 35 34 33 32 32 31 31 30 29 28
23 23 22 20 19 18 18 19 19 18 18 18 18 19 19 21 22 23 25 27 28 30 31 33 35 36 36 36 36 35 35 34 34 34 33 32 31 31 29 28 28 27
22 22 20 19 18 18 18 19 19 18 18 19 19 20 21 22 24 25 27 29 30 32 34 35 36 36 36 35 35 34 33 33 32 32 32 31 31 30 29 27 26 26
21 20 19 18 17 18 18 18 18 18 19 19 20 21 22 24 25 27 28 30 32 34 35 36 36 36 35 34 33 33 32 32 31 31 31 30 30 30 29 28 26 24
19 18 18 17 17 17 18 18 18 18 19 19 20 22 23 25 27 28 30 31 33 35 36 36 35 35 34 34 33 33 32 32 32 32 31 30 29 29 29 28 27 24
18 18 17 16 16 16 16 17 17 18 19 20 21 23 25 26 28 29 30 32 34 34 35 34 34 34 33 33 32 32 32 32 32 32 31 30 30 29 28 27 26 24
17 16 15 14 14 15 15 16 17 18 19 21 23 25 26 27 28 30 31 32 33 33 33 33 32 32 32 31 31 30 30 30 30 30 30 29 29 29 28 27 26 24
15 14 13 13 13 14 15 16 17 19 20 22 23 25 26 27 29 30 30 31 31 31 30 30 29 29 28 28 28 28 28 28 27 28 28 28 28 28 28 28 26 25
13 12 11 11 12 13 14 16 17 19 20 22 23 24 26 27 28 28 28 28 28 27 26 25 24 24 24 24 24 24 24 25 25 25 26 26 26 26 26 27 26 25
11 10 10 10 11 12 14 15 17 18 20 21 22 23 24 25 25 25 24 23 22 21 20 19 19 20 20 20 21 22 22 23 23 24 24 25 25 25 25 25 25 25
9 9 9 10 11 12 14 15 17 18 19 20 21 21 21 21 20 19 18 17 16 15 15 16 17 17 18 19 20 21 22 22 22 23 23 24 24 24 24 24 25 25
7 8 8 9 11 12 14 15 17 18 18 18 18 17 17 16 14 12 12 12 12 13 14 14 16 17 18 19 19 20 21 21 21 21 22 22 23 23 23 24 24 24
7 7 8 10 11 13 14 15 15 15 15 15 14 12 11 10 9 8 9 10 11 12 13 15 16 17 17 18 19 20 20 21 21 21 22 22 23 23 23 23 22 22
7 8 9 11 12 12 12 12 12 11 11 9 8 7 6 6 7 8 9 10 11 13 14 15 15 16 16 17 18 19 20 20 21 21 21 21 22 22 23 23 22 21
9 10 10 11 10 10 9 8 7 6 5 4 4 4 5 7 8 9 10 11 12 13 13 13 14 15 17 18 19 20 20 21 21 22 22 23 23 23 23 23 22 21
Wind_Direction
231 238 245 250 254 255 256 259 266 276 285 290 291 290 287 285 284 284 286 288 289 290 291 291 290 290 291 293 296 299 301 304 305 306 308 310 312 312 312 313 312 312
238 244 249 252 253 254 255 261 272 282 288 290 289 288 285 282 281 281 284 286 288 290 291 291 291 290 290 291 294 296 298 300 302 304 307 309 310 310 310 310 310 310
243 247 250 252 252 252 256 265 276 283 287 288 287 285 282 280 279 280 282 285 289 292 293 293 292 292 292 292 294 295 296 298 301 303 306 307 307 308 308 308 308 309
245 250 252 253 251 252 258 267 276 282 286 288 286 282 279 278 279 281 284 287 290 294 295 296 296 295 295 295 295 296 297 299 301 303 304 305 305 305 306 306 307 308
248 253 256 255 251 252 259 267 276 283 286 285 281 279 279 279 281 283 286 289 293 296 298 298 298 298 297 297 297 298 300 301 302 303 303 304 304 304 304 304 305 307
249 254 257 256 250 251 258 267 275 280 280 279 279 279 280 281 283 286 289 294 296 298 300 299 299 299 299 299 300 302 303 303 304 304 304 305 304 304 303 304 305 306
248 252 254 253 248 250 257 265 272 274 274 276 278 279 281 283 286 289 293 296 297 298 299 299 300 301 302 304 305 306 307 307 307 307 306 306 305 305 304 304 305 305
247 250 251 250 247 249 255 263 269 269 270 274 276 279 282 285 288 291 293 295 297 299 300 302 303 305 306 307 308 309 309 309 309 308 307 307 306 305 304 304 305 304
247 248 248 247 245 247 254 262 265 266 268 271 275 278 281 285 287 289 292 294 296 299 302 304 306 307 308 308 308 308 308 308 308 307 306 305 304 303 303 303 303 303
246 245 245 244 243 247 254 260 262 263 267 270 274 278 280 283 285 287 290 293 295 299 301 304 305 306 306 307 307 307 307 306 306 305 304 304 303 302 302 302 302 302
244 242 242 240 241 247 253 258 260 262 266 270 274 277 279 282 285 288 291 293 295 298 300 302 304 305 305 306 306 305 305 304 303 303 302 302 302 301 301 301 301 300
239 239 239 238 241 247 254 258 260 262 267 271 274 277 279 283 286 289 291 294 296 298 300 302 303 305 305 305 305 304 304 303 302 302 301 301 300 300 300 300 300 299
236 237 238 239 243 249 255 258 260 264 269 272 275 278 281 285 288 291 293 295 297 299 300 302 303 305 306 305 304 304 303 303 302 302 301 301 300 300 300 301 301 299
232 235 237 240 246 251 255 258 261 266 271 274 278 281 285 289 292 294 295 297 298 299 301 303 305 306 305 304 303 303 303 302 302 302 302 302 302 301 301 301 301 301
231 234 238 243 248 252 255 259 263 270 274 277 281 285 289 293 295 297 298 298 299 301 303 305 305 305 304 303 302 302 303 303 303 303 304 304 304 303 303 303 303 302
232 235 239 243 248 251 256 261 267 272 276 281 285 290 293 295 297 299 299 300 302 304 305 305 305 304 304 304 304 305 305 305 305 305 306 306 306 305 305 305 305 304
235 238 240 243 248 253 259 265 271 276 281 286 290 293 296 297 299 300 301 303 304 305 305 304 304 305 306 306 308 308 309 308 308 308 308 307 307 306 306 304 303 304
237 239 242 246 252 259 265 271 277 282 287 291 293 295 298 299 301 303 304 305 305 305 305 305 306 308 309 310 312 312 313 313 312 312 311 311 310 309 308 306 303 302
238 242 246 252 259 266 273 278 283 287 290 293 295 297 299 302 304 305 306 306 306 306 308 309 311 313 314 316 317 318 318 318 318 318 317 316 316 316 315 313 310 307
242 246 253 260 267 274 279 284 287 290 292 294 297 300 303 306 307 307 307 308 309 311 313 315 319 322 325 328 329 330 330 329 328 327 325 324 324 322 322 320 318 315
247 252 260 268 275 280 284 287 290 293 296 299 303 306 307 308 309 310 312 314 317 321 325 331 336 340 342 344 343 343 342 340 338 336 333 332 329 327 326 325 323 320
250 258 268 275 280 284 287 291 295 298 302 305 307 309 310 311 314 318 321 326 333 341 348 354 356 355 355 355 352 351 349 346 343 340 337 335 332 328 326 325 323 319
254 264 273 279 285 290 293 297 300 303 306 308 310 313 316 320 325 332 340 350 358 3 5 6 5 2 1 0 357 356 354 351 348 344 341 338 335 331 327 325 324 320
258 270 280 288 293 297 299 302 305 307 311 313 317 322 328 334 345 358 7 10 11 10 9 8 6 3 2 1 0 360 359 357 355 352 348 344 340 335 331 329 328 325
276 285 292 294 296 298 301 306 311 315 319 324 331 342 353 7 17 22 21 18 15 12 9 5 2 1 1 3 3 2 2 1 1 359 356 353 350 347 344 342 338 333
287 289 290 291 294 300 306 313 321 327 337 353 14 30 38 40 37 31 27 23 19 16 12 9 8 9 11 10 8 6 6 5 5 4 3 1 1 359 357 353 349 344